Location: Elmsmere
(40.9284°N, 73.8207°W)
Time: 22:11:15
(UTC+00:00)

STARLINK-2750 - Pass Details

Date: 26 June 2021
Orbit: 348 x 351 km, 53.0° (Epoch: 31 July)

Event Time Altitude Azimuth Distance (km) Brightness Sun altitude
Exits shadow 07:18:53 66° 141° (SE) 385 2.7 -17.9°
Maximum altitude 07:18:54 66° 139° (SE) 385 2.7 -17.9°
Drops below altitude 10° 07:21:48 10° 56° (NE) 1,315 6.6 -17.6°
Sets 07:23:50 0° 54° (NE) 2,161 8.0 -17.4°
